When you browse on this site, cookies collect data to enhance your experience and personalize the content and advertising you see.
Visit our Privacy Policy to learn more. By continuing to use the site, you agree to this use of cookies and data.
  • In United Kingdom
  • List of Countries
  • For 7 days
  • Water Temperature
  • Weather Map
  • Weather Widgets
  • user-avatar
    Login

    Hourly Weather Shkoder

    Today, 5 June, Friday

    Time Temperature Precipitation Wind Pressure Humidity
    00:00 +15°C° 0 mm 2 mps 735 mmHg 83%
    01:00 +15°C° 0 mm 2 mps 735 mmHg 81%
    02:00 +15°C° 0 mm 1 mps 735 mmHg 76%
    03:00 +15°C° 0 mm 1 mps 735 mmHg 71%
    04:00 +16°C° 0 mm 1 mps 734 mmHg 66%
    05:00 +16°C° 0 mm 1 mps 735 mmHg 66%
    06:00 +18°C° 0 mm 1 mps 735 mmHg 66%
    07:00 +17°C° 0 mm 2 mps 735 mmHg 66%
    08:00 +18°C° 0 mm 2 mps 735 mmHg 65%
    09:00 +18°C° 0 mm 2 mps 735 mmHg 64%
    10:00 +19°C° 0 mm 2 mps 735 mmHg 63%
    11:00 +19°C° 0.4 mm 2 mps 734 mmHg 69%
    12:00 +18°C° 0.4 mm 2 mps 734 mmHg 76%
    13:00 +19°C° 0.4 mm 1 mps 734 mmHg 82%
    14:00 +18°C° 0.2 mm 2 mps 733 mmHg 82%
    15:00 +19°C° 0.2 mm 3 mps 733 mmHg 82%
    16:00 +19°C° 0.2 mm 3 mps 733 mmHg 81%
    17:00 +18°C° 0.1 mm 3 mps 733 mmHg 81%
    18:00 +17°C° 0.1 mm 3 mps 733 mmHg 80%
    19:00 +17°C° 0.1 mm 2 mps 734 mmHg 80%
    20:00 +17°C° 0 mm 2 mps 734 mmHg 77%
    21:00 +16°C° 0 mm 2 mps 734 mmHg 74%
    22:00 +16°C° 0 mm 2 mps 734 mmHg 71%
    23:00 +16°C° 0 mm 2 mps 733 mmHg 70%

    Tomorrow, 6 June, Saturday

    Time Temperature Precipitation Wind Pressure Humidity
    00:00 +17°C° 0 mm 2 mps 733 mmHg 70%
    01:00 +17°C° 0 mm 3 mps 733 mmHg 69%
    02:00 +16°C° 0 mm 3 mps 733 mmHg 71%
    03:00 +16°C° 0 mm 3 mps 732 mmHg 73%
    04:00 +16°C° 0 mm 3 mps 732 mmHg 75%
    05:00 +17°C° 0 mm 3 mps 733 mmHg 75%
    06:00 +18°C° 0 mm 3 mps 733 mmHg 74%
    07:00 +20°C° 0 mm 2 mps 733 mmHg 74%
    08:00 +20°C° 0.1 mm 2 mps 733 mmHg 72%
    09:00 +21°C° 0.1 mm 2 mps 733 mmHg 70%
    10:00 +23°C° 0.1 mm 2 mps 733 mmHg 68%
    11:00 +24°C° 0.7 mm 2 mps 733 mmHg 65%
    12:00 +25°C° 0.7 mm 2 mps 733 mmHg 62%
    13:00 +26°C° 0.7 mm 2 mps 733 mmHg 60%
    14:00 +26°C° 0.8 mm 2 mps 733 mmHg 60%
    15:00 +26°C° 0.8 mm 2 mps 733 mmHg 61%
    16:00 +25°C° 0.8 mm 2 mps 733 mmHg 61%
    17:00 +24°C° 0.5 mm 1 mps 733 mmHg 68%
    18:00 +22°C° 0.5 mm 1 mps 733 mmHg 74%
    19:00 +20°C° 0.5 mm 1 mps 733 mmHg 80%
    20:00 +20°C° 0.1 mm 1 mps 734 mmHg 82%
    21:00 +19°C° 0.1 mm 1 mps 734 mmHg 84%
    22:00 +19°C° 0.1 mm 1 mps 735 mmHg 86%
    23:00 +19°C° 0 mm 1 mps 735 mmHg 87%

    Day after tomorrow, 7 June, Sunday

    Time Temperature Precipitation Wind Pressure Humidity
    00:00 +18°C° 0 mm 1 mps 735 mmHg 88%
    01:00 +18°C° 0 mm 1 mps 735 mmHg 89%
    02:00 +16°C° 0 mm 1 mps 735 mmHg 90%
    03:00 +16°C° 0 mm 1 mps 735 mmHg 90%
    04:00 +15°C° 0 mm 1 mps 735 mmHg 90%
    05:00 +18°C° 0 mm 1 mps 735 mmHg 88%
    06:00 +19°C° 0 mm 1 mps 735 mmHg 85%
    07:00 +21°C° 0 mm 1 mps 736 mmHg 82%
    08:00 +22°C° 0 mm 1 mps 736 mmHg 77%
    09:00 +23°C° 0 mm 2 mps 736 mmHg 72%
    10:00 +24°C° 0 mm 2 mps 736 mmHg 67%
    11:00 +24°C° 0 mm 2 mps 736 mmHg 67%
    12:00 +24°C° 0 mm 3 mps 736 mmHg 66%
    13:00 +25°C° 0 mm 3 mps 736 mmHg 65%
    14:00 +25°C° 0 mm 3 mps 736 mmHg 66%
    15:00 +24°C° 0 mm 3 mps 736 mmHg 67%
    16:00 +24°C° 0 mm 2 mps 736 mmHg 68%
    17:00 +23°C° 0 mm 2 mps 736 mmHg 74%
    18:00 +21°C° 0 mm 1 mps 736 mmHg 80%
    19:00 +20°C° 0 mm 1 mps 736 mmHg 86%
    20:00 +19°C° 0 mm 1 mps 737 mmHg 86%
    21:00 +19°C° 0 mm 1 mps 737 mmHg 87%
    22:00 +18°C° 0 mm 1 mps 737 mmHg 87%
    23:00 +18°C° 0 mm 1 mps 737 mmHg 86%

    8 June, Monday

    Time Temperature Precipitation Wind Pressure Humidity
    00:00 +18°C° 0 mm 1 mps 737 mmHg 85%
    01:00 +16°C° 0 mm 1 mps 737 mmHg 85%
    02:00 +16°C° 0 mm 1 mps 737 mmHg 84%
    03:00 +16°C° 0 mm 1 mps 737 mmHg 84%
    04:00 +16°C° 0 mm 1 mps 736 mmHg 84%
    05:00 +19°C° 0 mm 1 mps 737 mmHg 80%
    06:00 +20°C° 0 mm 1 mps 737 mmHg 75%
    07:00 +22°C° 0 mm 1 mps 737 mmHg 71%
    08:00 +23°C° 0 mm 1 mps 737 mmHg 68%
    09:00 +24°C° 0 mm 2 mps 737 mmHg 64%
    10:00 +26°C° 0 mm 2 mps 737 mmHg 61%
    11:00 +26°C° 0.1 mm 2 mps 737 mmHg 61%
    12:00 +26°C° 0.1 mm 2 mps 736 mmHg 61%
    13:00 +26°C° 0.1 mm 2 mps 736 mmHg 61%
    14:00 +26°C° 0.1 mm 2 mps 736 mmHg 62%
    15:00 +26°C° 0.1 mm 2 mps 736 mmHg 62%
    16:00 +26°C° 0.1 mm 2 mps 736 mmHg 63%
    17:00 +24°C° 0.1 mm 2 mps 736 mmHg 68%
    18:00 +23°C° 0.1 mm 1 mps 736 mmHg 74%
    19:00 +21°C° 0.1 mm 1 mps 736 mmHg 79%
    20:00 +21°C° 0.1 mm 1 mps 736 mmHg 80%
    21:00 +20°C° 0.1 mm 1 mps 736 mmHg 80%
    22:00 +19°C° 0.1 mm 1 mps 737 mmHg 81%
    23:00 +19°C° 0.1 mm 1 mps 736 mmHg 81%

    9 June, Tuesday

    Time Temperature Precipitation Wind Pressure Humidity
    00:00 +19°C° 0.1 mm 1 mps 736 mmHg 82%
    01:00 +19°C° 0.1 mm 1 mps 736 mmHg 82%
    02:00 +19°C° 0 mm 1 mps 736 mmHg 81%
    03:00 +19°C° 0 mm 1 mps 736 mmHg 80%
    04:00 +18°C° 0 mm 1 mps 736 mmHg 79%
    05:00 +20°C° 0.1 mm 1 mps 736 mmHg 75%
    06:00 +22°C° 0.1 mm 1 mps 736 mmHg 71%
    07:00 +23°C° 0.1 mm 1 mps 736 mmHg 67%
    08:00 +24°C° 0.1 mm 1 mps 736 mmHg 63%
    09:00 +25°C° 0.1 mm 2 mps 737 mmHg 59%
    10:00 +26°C° 0.1 mm 2 mps 737 mmHg 56%
    11:00 +26°C° 0.1 mm 2 mps 737 mmHg 55%
    12:00 +27°C° 0.1 mm 3 mps 736 mmHg 53%
    13:00 +27°C° 0.1 mm 3 mps 736 mmHg 52%
    14:00 +27°C° 0 mm 3 mps 736 mmHg 53%
    15:00 +26°C° 0 mm 2 mps 736 mmHg 53%
    16:00 +26°C° 0 mm 2 mps 736 mmHg 54%
    17:00 +24°C° 0 mm 2 mps 737 mmHg 60%
    18:00 +23°C° 0 mm 1 mps 737 mmHg 67%
    19:00 +21°C° 0 mm 1 mps 737 mmHg 73%
    20:00 +21°C° 0 mm 1 mps 737 mmHg 72%
    21:00 +20°C° 0 mm 1 mps 738 mmHg 71%
    22:00 +19°C° 0 mm 1 mps 738 mmHg 71%
    23:00 +19°C° 0 mm 1 mps 738 mmHg 71%

    10 June, Wednesday

    Time Temperature Precipitation Wind Pressure Humidity
    00:00 +19°C° 0 mm 1 mps 738 mmHg 71%
    01:00 +18°C° 0 mm 1 mps 738 mmHg 71%
    02:00 +18°C° 0 mm 1 mps 738 mmHg 70%
    03:00 +18°C° 0 mm 1 mps 738 mmHg 70%
    04:00 +18°C° 0 mm 1 mps 738 mmHg 69%
    05:00 +20°C° 0 mm 1 mps 738 mmHg 67%
    06:00 +21°C° 0 mm 1 mps 738 mmHg 64%
    07:00 +23°C° 0 mm 1 mps 738 mmHg 61%
    08:00 +24°C° 0 mm 1 mps 738 mmHg 58%
    09:00 +26°C° 0 mm 1 mps 738 mmHg 55%
    10:00 +27°C° 0 mm 1 mps 738 mmHg 53%
    11:00 +28°C° 0 mm 2 mps 738 mmHg 52%
    12:00 +28°C° 0 mm 2 mps 738 mmHg 51%
    13:00 +28°C° 0 mm 2 mps 738 mmHg 50%
    14:00 +28°C° 0.1 mm 2 mps 738 mmHg 51%
    15:00 +28°C° 0.1 mm 2 mps 738 mmHg 52%
    16:00 +28°C° 0.1 mm 2 mps 738 mmHg 54%
    17:00 +26°C° 0 mm 2 mps 738 mmHg 61%
    18:00 +24°C° 0 mm 1 mps 738 mmHg 69%
    19:00 +22°C° 0 mm 1 mps 738 mmHg 76%
    20:00 +21°C° 0 mm 1 mps 738 mmHg 78%
    21:00 +20°C° 0 mm 1 mps 738 mmHg 79%
    22:00 +20°C° 0 mm 1 mps 739 mmHg 80%
    23:00 +19°C° 0 mm 1 mps 739 mmHg 80%
    Show more